Temperature
20 20 20 19 19 19 19 19 19 19 19 19 19 19 19 19 19 19 19 19 19 19 19 19 19 19 19 19 19 19 18 18 18 18 18 18 18 18 18 18 17 17 18
20 20 20 19 19 19 19 19 19 19 19 19 19 19 19 19 19 18 19 19 18 19 19 19 19 19 19 18 18 18 18 18 18 18 18 18 18 18 18 18 17 17 18
20 20 19 19 19 19 19 19 19 19 19 19 18 18 19 19 19 18 18 18 18 18 18 18 18 18 18 18 18 18 18 18 18 18 18 17 17 18 18 18 17 18 17
20 20 19 19 19 19 19 19 19 19 19 19 19 18 18 19 18 18 18 18 18 18 18 18 18 18 18 18 18 18 18 18 18 18 17 17 17 17 18 17 17 17 17
20 19 19 19 19 19 19 19 19 19 19 19 18 18 18 18 18 18 18 18 18 18 18 18 18 18 18 18 18 18 18 18 18 17 17 17 17 17 17 17 17 17 17
20 19 19 19 19 19 19 19 19 19 19 18 18 18 18 18 18 18 18 18 18 18 18 18 18 18 18 18 18 18 18 18 18 17 17 17 17 18 17 17 17 17 17
20 19 19 19 19 19 19 19 19 19 19 18 18 18 18 18 18 18 18 18 18 18 18 18 18 18 18 18 18 18 18 18 17 17 17 17 17 18 18 17 17 17 17
20 19 19 19 19 19 19 19 18 18 18 18 18 18 18 18 18 18 18 18 18 18 18 18 18 18 18 18 18 18 18 18 17 17 17 17 17 18 17 17 17 17 17
19 19 19 19 19 19 19 19 18 18 18 18 18 18 18 18 18 18 18 18 18 18 18 18 18 18 18 18 18 18 18 18 18 17 17 17 17 18 17 17 17 17 17
19 19 19 18 18 18 18 18 18 18 18 18 18 18 18 18 18 18 18 18 18 18 18 18 18 18 18 18 18 18 18 18 18 18 17 17 18 17 17 17 17 17 17
19 19 19 19 18 18 18 18 18 18 18 18 18 18 18 17 17 17 18 18 18 18 18 18 18 18 18 18 18 18 18 18 18 18 17 18 18 17 17 17 17 17 17
19 19 19 18 18 18 18 18 18 18 18 18 18 18 17 17 17 17 18 18 18 18 18 18 18 18 18 17 18 18 18 18 18 18 17 18 18 17 17 17 17 17 17
19 19 19 18 18 18 18 18 18 18 18 18 18 18 18 17 17 17 18 18 18 18 17 17 17 17 17 17 18 18 18 18 18 18 18 18 18 17 17 17 17 17 17
19 18 18 18 18 18 18 18 18 18 18 18 17 18 17 17 17 17 17 17 17 17 17 17 17 17 17 17 17 18 18 18 18 18 18 18 18 18 17 17 17 17 17
19 18 18 18 18 18 18 18 18 18 18 18 17 17 18 17 17 17 17 17 17 17 17 17 17 17 17 17 17 17 18 18 18 18 18 18 18 18 17 17 17 17 17
19 18 18 18 18 18 18 18 18 17 18 18 17 17 18 17 17 17 17 17 17 17 17 17 17 17 17 17 17 17 17 18 17 17 17 17 18 18 18 17 17 17 17
19 18 18 18 18 18 18 18 18 17 17 17 17 17 18 17 17 17 17 17 17 17 17 17 17 17 17 17 17 17 17 17 17 17 17 17 17 17 18 18 17 17 17
19 18 18 18 18 18 18 18 18 18 17 17 17 17 18 18 18 17 17 17 17 17 17 17 17 17 17 17 17 17 18 18 17 17 17 17 17 17 17 17 17 17 17
19 19 18 18 18 18 18 18 18 18 18 18 17 17 18 17 17 17 17 17 17 17 17 17 17 17 17 17 17 18 18 18 17 17 17 17 17 17 17 17 17 17 17
19 19 19 18 18 18 18 18 18 18 18 18 17 17 18 17 17 17 17 17 17 17 17 17 17 17 17 17 18 18 18 18 18 18 17 17 17 17 17 17 17 17 17
19 19 19 18 18 18 18 18 18 18 17 17 17 17 18 17 17 17 17 17 17 17 17 17 17 17 17 17 17 18 18 18 18 17 17 17 17 17 17 17 17 17 17
19 19 19 19 18 18 18 18 18 18 17 17 17 17 18 17 17 17 17 17 17 17 17 17 17 17 17 17 17 18 18 18 18 18 17 17 17 17 17 17 17 17 17
19 19 19 18 18 18 18 18 17 18 18 18 17 17 18 18 17 17 17 17 17 17 17 17 17 17 17 17 17 17 18 18 18 18 17 17 17 17 17 17 17 17 16
20 19 18 18 18 18 18 18 17 17 17 18 17 17 17 17 17 17 18 17 17 17 17 17 17 17 17 17 17 17 17 17 17 17 17 17 17 17 17 17 17 17 16
20 19 19 18 18 18 18 18 18 17 17 18 18 18 17 17 17 17 17 18 18 17 17 17 17 17 17 17 17 17 17 17 17 17 17 17 17 17 17 16 16 16 16
20 19 19 18 18 18 18 18 18 18 18 18 18 18 17 17 17 17 17 18 17 17 17 17 17 17 17 17 17 17 17 17 17 17 17 17 17 17 17 16 16 16 16
Wind_Speed
3 6 11 9 9 10 11 11 11 12 13 14 15 15 15 15 15 15 15 15 15 15 14 14 13 13 12 12 11 11 10 10 11 11 11 11 11 11 10 10 10 10 12
5 7 12 9 10 11 11 11 11 12 13 13 14 14 15 14 14 15 15 14 14 14 14 13 13 12 11 11 11 11 10 10 10 11 11 11 10 10 9 7 5 10 12
6 8 11 10 11 11 12 11 12 12 13 12 13 13 14 14 14 14 14 14 14 14 13 13 12 12 11 11 11 11 10 10 10 10 10 9 10 10 9 8 8 10 11
7 8 10 11 10 11 11 11 12 12 12 11 11 11 12 12 13 13 13 13 13 13 13 12 11 11 11 11 10 10 10 10 9 9 8 7 9 10 9 9 9 10 10
7 9 11 11 10 10 10 10 11 11 11 10 10 10 11 11 12 12 12 12 11 12 12 12 11 10 10 10 10 10 10 9 8 7 6 6 7 10 9 9 9 9 10
8 9 12 10 9 9 10 10 10 10 10 9 9 9 9 9 10 11 11 11 11 11 11 11 10 10 10 9 9 9 9 9 9 6 6 6 7 9 9 9 9 9 10
7 9 11 11 9 9 9 9 9 9 9 8 8 8 9 9 9 9 9 10 10 10 10 10 10 10 9 9 8 8 8 8 6 5 5 5 7 9 8 9 9 10 10
7 8 10 11 9 8 8 8 8 8 9 8 7 7 8 8 8 8 8 8 8 9 9 9 9 9 9 8 8 8 8 8 7 6 5 6 8 10 9 9 9 9 10
7 7 7 8 8 9 8 7 7 7 7 7 7 7 7 7 6 7 7 7 8 9 9 9 9 9 9 8 8 8 8 8 6 5 6 6 10 10 9 10 9 9 9
5 5 6 6 6 5 7 7 6 6 6 6 6 6 6 6 7 7 7 7 8 8 8 9 8 9 9 9 9 9 9 10 6 5 5 7 10 10 9 9 9 10 9
4 3 4 5 4 4 4 6 6 6 5 6 6 6 5 5 6 6 6 7 8 8 8 8 8 9 9 10 10 10 10 7 6 4 4 8 10 10 9 9 10 10 10
3 2 3 3 3 3 3 4 3 3 4 3 3 3 3 3 3 4 6 7 7 8 9 9 9 10 10 8 10 12 7 6 5 4 5 9 9 10 9 9 10 10 10
3 2 2 2 2 2 2 2 2 2 2 3 3 3 3 3 3 3 4 6 7 8 7 9 9 7 6 5 5 6 6 5 4 4 6 10 10 10 10 10 11 11 11
2 2 2 2 2 1 1 1 2 2 2 2 2 2 2 1 1 1 2 3 4 4 4 4 4 5 5 5 5 5 5 4 4 3 5 11 10 10 10 10 11 12 12
3 2 2 1 1 1 1 0 1 1 1 2 1 1 1 1 1 1 1 1 2 3 3 3 4 4 4 5 5 5 5 5 4 4 5 10 11 11 11 10 10 11 11
3 2 2 2 1 1 1 0 0 1 1 1 1 1 0 0 0 1 1 1 2 2 3 3 3 3 4 4 5 5 5 5 4 5 5 8 12 12 11 11 11 11 11
3 2 1 2 1 1 0 0 1 1 1 1 1 1 0 1 1 1 1 2 1 3 3 3 3 3 3 4 4 4 4 4 4 4 4 5 8 12 13 12 11 11 11
2 2 1 1 1 1 1 0 0 0 0 0 0 1 1 1 1 2 1 1 1 2 2 3 3 2 2 2 2 2 2 3 4 4 4 5 5 6 10 12 11 11 11
2 2 1 0 0 1 1 1 1 1 1 0 0 0 0 1 2 2 2 1 2 2 2 2 2 2 2 2 2 2 3 3 3 3 3 4 4 5 5 9 11 10 10
3 2 1 1 0 0 1 1 1 1 1 1 1 1 1 1 1 2 2 2 2 2 2 1 1 1 1 1 2 1 2 2 2 2 2 3 3 4 4 4 6 8 10
4 3 2 1 1 1 1 1 1 1 0 1 0 1 1 1 1 1 1 2 2 2 2 2 2 2 2 1 1 1 1 2 2 2 2 1 2 3 3 3 3 4 6
5 4 4 3 2 2 1 1 1 0 0 1 1 1 1 1 1 1 1 2 2 2 3 2 2 2 2 2 1 2 2 2 2 2 2 2 2 2 3 3 3 3 4
5 4 4 4 3 2 2 1 1 1 1 0 0 1 1 1 1 1 1 2 2 3 3 3 3 3 2 2 1 1 1 1 0 1 2 2 2 2 2 2 3 4 4
4 4 4 3 3 3 3 2 2 1 1 0 0 1 1 1 1 1 1 1 2 2 2 3 3 3 3 3 2 1 1 0 1 1 2 2 2 2 2 3 3 3 4
3 3 3 3 3 3 3 2 2 1 1 0 0 1 1 1 1 1 2 1 1 2 2 3 2 3 3 3 2 2 2 2 3 3 2 2 2 2 2 3 2 2 3
3 3 3 3 3 3 3 2 2 1 1 1 1 1 1 1 1 1 1 1 2 1 1 2 2 3 3 2 3 2 2 2 3 3 3 3 3 2 2 1 2 2 2
Wind_Direction
91 117 125 130 131 125 123 122 122 126 130 133 136 138 139 138 140 141 140 142 142 143 141 140 142 142 141 139 136 131 132 135 133 131 131 132 131 132 133 140 148 130 127
96 113 126 128 130 127 125 123 123 126 130 130 135 139 141 141 141 143 145 145 145 145 145 143 141 143 145 146 142 137 136 137 138 139 142 141 137 139 141 142 128 122 134
102 114 126 122 124 126 125 126 126 124 128 130 134 137 141 143 144 145 147 148 148 149 148 146 142 145 146 145 144 142 140 138 142 153 169 153 142 145 144 137 126 132 138
105 112 113 117 119 122 122 126 127 128 129 128 130 136 142 144 146 146 147 148 151 153 151 148 147 147 146 147 147 147 146 146 155 178 173 152 144 140 146 142 139 140 139
106 110 112 118 117 118 121 121 124 127 130 131 133 137 143 146 149 149 149 148 150 154 152 152 153 153 150 148 151 153 153 157 172 189 150 147 140 140 152 152 150 147 145
112 113 110 114 113 115 119 120 121 126 129 134 138 138 141 145 149 151 151 151 151 152 155 156 159 160 158 155 155 159 163 173 194 165 162 160 145 146 159 160 159 155 151
104 108 111 111 111 113 114 119 124 127 131 135 134 138 141 146 148 149 150 152 153 153 157 159 161 162 160 160 161 164 170 194 203 166 170 158 140 148 163 165 164 161 158
98 104 110 119 119 115 114 117 124 130 136 141 139 139 142 144 148 151 154 156 156 154 159 165 166 166 164 166 170 173 181 213 194 176 169 150 141 161 172 170 171 170 168
95 100 107 117 124 127 124 122 121 128 135 142 142 140 143 145 152 153 158 161 165 165 169 172 173 172 171 174 177 182 191 221 212 180 174 159 152 170 181 179 178 177 174
88 98 109 112 116 128 127 127 129 128 132 144 147 144 146 157 165 168 171 167 166 167 175 178 174 174 176 181 186 193 203 218 205 185 181 156 159 178 187 186 183 178 182
92 98 111 113 114 120 124 128 140 145 147 160 159 163 177 171 167 172 161 167 172 175 181 179 177 181 186 188 196 205 214 214 197 198 185 150 171 188 193 191 186 186 189
119 114 108 108 105 115 120 125 135 138 135 147 143 161 167 157 164 165 158 176 178 182 187 183 187 192 204 196 193 204 213 211 206 197 171 160 179 192 194 194 194 192 194
136 123 105 103 103 107 110 124 127 132 128 140 143 159 162 177 173 173 172 173 178 187 189 180 191 196 197 194 202 201 209 214 208 201 171 167 183 194 197 201 198 198 197
144 133 116 101 91 85 90 122 134 133 136 133 136 161 156 165 173 156 174 165 176 174 171 182 184 193 199 199 206 212 212 214 210 198 169 168 185 199 203 207 207 205 202
147 144 130 113 90 98 95 279 125 125 135 129 123 143 172 173 172 140 156 170 182 170 174 190 192 193 203 205 210 212 215 214 214 207 178 170 186 195 204 210 208 206 205
146 143 134 143 142 134 140 160 192 162 153 152 143 114 189 228 153 190 185 198 198 188 188 196 194 200 210 214 217 216 223 218 209 212 205 179 186 192 199 206 211 212 212
146 143 137 155 143 147 170 207 194 180 162 162 147 145 205 269 299 272 218 213 205 183 187 193 197 201 209 216 219 219 219 222 216 217 219 211 192 191 197 205 210 213 214
155 157 178 140 141 161 167 268 219 159 102 145 189 166 194 262 255 252 225 213 197 198 195 191 203 200 211 229 225 233 223 207 210 214 215 208 202 195 192 196 205 212 218
172 176 191 200 187 206 187 183 148 87 37 0 24 337 308 262 237 236 224 207 214 205 207 210 183 210 221 234 214 207 220 213 202 200 199 205 195 203 196 183 195 208 218
173 175 185 182 188 220 184 169 155 107 81 58 32 29 337 291 253 245 217 191 218 207 206 200 196 207 224 223 214 195 208 202 191 191 203 197 191 201 202 195 191 198 208
179 179 179 179 155 180 182 195 177 153 73 68 53 49 355 320 282 254 246 185 218 204 206 200 202 195 192 163 174 182 183 181 180 191 198 190 187 192 200 197 204 209 199
190 192 187 189 182 193 178 189 196 209 140 104 16 57 2 354 313 246 234 221 215 194 189 195 196 210 199 179 208 213 201 183 179 192 191 191 208 205 206 200 198 208 223
197 198 198 196 189 196 200 186 155 170 231 128 117 60 24 11 339 321 288 252 224 222 200 201 202 204 209 206 211 245 246 231 122 177 188 198 209 228 228 192 202 209 219
197 198 199 194 191 190 192 195 195 225 262 308 319 50 22 13 348 322 289 260 248 246 214 223 212 215 210 211 204 236 288 304 245 215 202 190 197 221 236 236 228 212 216
185 186 184 185 188 184 190 191 214 246 263 276 335 20 322 26 4 356 329 298 264 254 243 246 229 225 221 228 227 207 203 209 235 242 244 238 225 227 225 236 239 234 215
163 162 165 167 177 178 178 182 200 213 241 290 308 343 336 27 25 24 348 321 289 277 249 241 239 224 228 236 242 232 227 230 227 238 247 249 259 261 244 234 237 234 217
Height
1516 1514 1513 1514 1514 1515 1516 1516 1518 1519 1520 1522 1523 1524 1526 1528 1529 1531 1533 1535 1537 1539 1541 1543 1545 1546 1548 1550 1551 1552 1553 1554 1556 1557 1557 1558 1559 1560 1560 1561 1561 1562 1562
1516 1514 1514 1514 1515 1516 1517 1518 1519 1520 1522 1523 1525 1526 1528 1529 1531 1533 1535 1537 1538 1540 1542 1544 1545 1547 1549 1550 1552 1553 1554 1555 1556 1558 1558 1559 1560 1560 1561 1562 1562 1563 1563
1518 1517 1516 1516 1517 1518 1519 1520 1521 1522 1523 1525 1526 1528 1529 1531 1532 1534 1536 1537 1539 1541 1543 1544 1546 1548 1549 1551 1552 1554 1555 1556 1557 1558 1559 1561 1561 1561 1562 1562 1563 1563 1564
1520 1520 1519 1518 1519 1520 1520 1521 1522 1523 1525 1526 1527 1529 1530 1532 1533 1535 1536 1538 1540 1541 1543 1545 1546 1548 1550 1551 1553 1554 1555 1557 1558 1559 1561 1562 1562 1561 1562 1563 1563 1564 1564
1522 1522 1521 1521 1521 1521 1522 1523 1524 1525 1526 1527 1529 1530 1531 1533 1534 1535 1537 1538 1540 1541 1543 1545 1547 1549 1550 1552 1554 1555 1556 1557 1558 1560 1561 1562 1562 1562 1562 1563 1564 1565 1565
1524 1524 1523 1522 1523 1523 1523 1524 1525 1526 1527 1529 1530 1531 1532 1533 1535 1536 1537 1539 1540 1541 1543 1545 1547 1549 1551 1552 1554 1555 1556 1558 1559 1561 1561 1562 1562 1562 1562 1563 1564 1565 1566
1526 1526 1525 1524 1524 1525 1525 1526 1526 1528 1529 1530 1531 1532 1533 1533 1534 1536 1537 1539 1540 1542 1544 1546 1547 1549 1551 1552 1554 1555 1557 1558 1560 1561 1562 1562 1561 1561 1562 1563 1564 1565 1566
1527 1527 1527 1526 1526 1526 1527 1527 1528 1529 1530 1531 1531 1532 1533 1534 1535 1535 1536 1538 1540 1541 1543 1545 1547 1549 1551 1552 1554 1555 1556 1557 1560 1561 1561 1562 1561 1561 1562 1563 1564 1565 1566
1529 1529 1529 1529 1528 1528 1528 1529 1529 1530 1531 1531 1532 1532 1533 1533 1534 1535 1536 1537 1539 1541 1543 1545 1547 1549 1550 1552 1553 1555 1556 1557 1560 1561 1561 1561 1561 1561 1562 1563 1563 1564 1565
1530 1531 1530 1530 1530 1530 1530 1530 1530 1531 1531 1532 1532 1532 1533 1533 1533 1534 1535 1536 1537 1539 1542 1544 1546 1548 1550 1551 1553 1554 1556 1557 1560 1560 1561 1560 1560 1561 1561 1562 1563 1563 1564
1531 1531 1532 1531 1531 1531 1532 1531 1531 1531 1532 1532 1533 1532 1533 1534 1534 1534 1534 1535 1536 1539 1541 1543 1545 1547 1549 1551 1552 1553 1555 1557 1559 1559 1560 1559 1559 1560 1561 1561 1562 1563 1564
1532 1532 1532 1532 1532 1532 1532 1532 1532 1533 1532 1533 1533 1533 1533 1533 1533 1533 1533 1534 1536 1538 1540 1542 1544 1546 1549 1551 1552 1553 1555 1556 1557 1558 1558 1557 1558 1559 1560 1560 1561 1562 1563
1532 1532 1533 1532 1532 1532 1532 1532 1533 1533 1532 1533 1533 1533 1533 1533 1533 1533 1534 1534 1536 1538 1540 1541 1544 1546 1548 1550 1551 1553 1554 1555 1555 1556 1556 1556 1556 1557 1558 1559 1560 1561 1562
1532 1533 1533 1533 1532 1532 1533 1533 1533 1533 1533 1534 1533 1534 1534 1533 1533 1533 1534 1535 1536 1538 1539 1541 1543 1545 1546 1548 1550 1551 1552 1553 1554 1554 1554 1554 1555 1556 1557 1558 1559 1559 1560
1531 1533 1533 1533 1533 1532 1532 1533 1533 1533 1534 1534 1534 1534 1534 1534 1533 1534 1534 1534 1536 1537 1538 1540 1541 1543 1544 1546 1548 1549 1550 1551 1552 1553 1553 1552 1553 1554 1555 1556 1557 1558 1559
1532 1533 1533 1533 1533 1533 1533 1533 1533 1534 1533 1534 1534 1534 1534 1534 1534 1534 1534 1535 1536 1537 1538 1539 1540 1541 1543 1544 1546 1547 1548 1549 1550 1550 1551 1551 1551 1552 1553 1554 1555 1556 1557
1533 1533 1534 1534 1533 1533 1533 1533 1534 1534 1534 1534 1535 1534 1534 1534 1534 1534 1534 1535 1536 1536 1537 1538 1539 1540 1541 1543 1544 1545 1546 1547 1548 1548 1549 1550 1550 1551 1552 1552 1553 1554 1555
1534 1534 1534 1534 1534 1533 1533 1533 1534 1534 1535 1535 1535 1535 1535 1534 1534 1534 1535 1535 1535 1536 1536 1537 1538 1539 1540 1541 1542 1543 1544 1545 1546 1546 1547 1548 1549 1550 1550 1551 1552 1552 1553
1535 1534 1534 1534 1534 1534 1534 1534 1534 1534 1534 1535 1535 1535 1535 1535 1534 1535 1535 1535 1535 1536 1536 1537 1537 1538 1538 1539 1540 1541 1542 1543 1544 1545 1546 1547 1547 1548 1549 1549 1550 1550 1551
1535 1534 1534 1534 1534 1534 1534 1534 1534 1534 1535 1535 1535 1535 1535 1535 1535 1535 1535 1535 1535 1535 1535 1536 1536 1537 1537 1537 1539 1540 1541 1542 1543 1543 1544 1545 1546 1547 1548 1548 1548 1548 1548
1534 1534 1534 1534 1534 1534 1534 1534 1534 1534 1535 1535 1535 1535 1535 1535 1535 1535 1535 1535 1535 1535 1535 1535 1536 1536 1537 1537 1538 1539 1540 1541 1542 1542 1543 1544 1545 1545 1545 1546 1546 1547 1547
1534 1534 1534 1534 1534 1534 1534 1533 1533 1534 1535 1535 1535 1535 1535 1535 1535 1535 1534 1534 1534 1534 1534 1534 1534 1535 1536 1537 1538 1538 1539 1541 1541 1541 1542 1542 1543 1544 1544 1544 1544 1544 1545
1533 1534 1534 1534 1533 1533 1533 1534 1534 1534 1535 1535 1535 1535 1535 1535 1534 1534 1534 1534 1533 1534 1534 1534 1534 1534 1535 1536 1537 1538 1539 1539 1540 1541 1541 1541 1541 1542 1543 1543 1543 1543 1543
1533 1533 1533 1533 1533 1533 1533 1534 1534 1534 1535 1535 1535 1535 1535 1534 1534 1534 1533 1533 1533 1533 1533 1533 1534 1534 1534 1535 1536 1537 1538 1538 1539 1540 1540 1540 1540 1540 1541 1541 1542 1541 1541
1532 1532 1532 1532 1532 1532 1533 1533 1534 1534 1535 1535 1535 1534 1534 1534 1533 1533 1533 1532 1532 1532 1532 1532 1533 1533 1533 1534 1535 1536 1536 1537 1538 1538 1538 1539 1539 1539 1539 1539 1539 1539 1539
1531 1531 1531 1530 1531 1531 1532 1533 1533 1534 1534 1534 1534 1534 1534 1534 1533 1532 1532 1532 1532 1532 1531 1531 1531 1532 1532 1532 1533 1534 1535 1536 1536 1536 1536 1536 1537 1538 1537 1537 1537 1537 1537